User: anonymous   Login
Location: Ebenezer
(18.2167°N, 63.0667°W)
Time: 12:57:54
(UTC+00:00)
Language:

CSL-04 Debris - Orbit

View from above orbital plane
View from above orbital plane
View from above satellite
View from above satellite

Ground track
Ground track

The orbit data is extracted from the following two-line orbital elements,

1 25733U 99025D   20099.07824978  .00000090  00000-0  68232-4 0  9994
2 25733  98.9558 126.9121 0015470 159.1647 201.0160 14.16348904 79802
Epoch (UTC): 08 April 2020 01:52:40
Eccentricity: 0.0015470
inclination: 98.9558°
perigee height: 826 km
apogee height: 849 km
right ascension of ascending node: 126.9121°
argument of perigee: 159.1647°
revolutions per day: 14.16348904
mean anomaly at epoch: 201.0160°
orbit number at epoch: 7980

The dashed part of the orbit path shows where the satellite is in the earth's shadow,  

DLR